Flag for U.S.A. Weather past 2 weeks in Sarasota, Florida, U.S.A.

Now
86 °F

Sunny.


Feels Like: 89 °F
Forecast: 76 / 85 °F
Wind: 10 mph from West

Location: Sarasota-Bradenton International Airport

Current Time: Apr 27, 2015 at 1:46:55 PM

Latest Report: Apr 27, 2015 at 12:53 PM


Visibility: 10 mi

Pressure: 29.79 "Hg

Humidity: 53%

Dew point: 67 °F

Location of SarasotaLocation

Historic Weather in Sarasota — Graph

°F

Sarasota temperature yesterday

Maximum temperature yesterday: 85 °F (at 2:53 PM)
Minimum temperature yesterday: 79 °F (at 12:53 AM)
Average temperature yesterday: 81 °F

Past Weeks' High & Low Weather Summary

 TemperatureHumidityPressure
High86 °F (Apr 13, 12:53 PM)100% (Apr 17, 7:01 AM)30.15 "Hg (Apr 17, 7:01 AM)
Low67 °F (Apr 21, 3:53 AM)53% (Apr 22, 11:53 AM)29.74 "Hg (Apr 27, 2:53 AM)
Average77 °F81%29.96 "Hg
* Reported Apr 12 12:53 PM — Apr 27 12:53 PM, Sarasota, Weather by CustomWeather, © 2015

Note: Actual official high and low records may vary slightly from our data, if they occured in-between our weather recording intervals... More about our weather records

Advertising

Sarasota weather history for previous 24 hours

 ConditionsComfort  
Time TempWeatherWind HumidityBarometerVisibility
12:53 PM
Mon, Apr 27
86 °FSunny.10 mph53%29.79 "Hg10 mi
11:53 AM85 °FSunny.8 mph55%29.80 "Hg10 mi
10:53 AM84 °FBroken clouds.10 mph57%29.83 "Hg10 mi
9:53 AM82 °FSunny.8 mph79%29.85 "Hg10 mi
8:53 AM80 °FBroken clouds.7 mph87%29.84 "Hg9 mi
7:53 AM79 °FPassing clouds.10 mph88%29.82 "Hg8 mi
6:53 AM78 °FPassing clouds.6 mph93%29.79 "Hg9 mi
5:53 AM78 °FMostly cloudy.8 mph93%29.76 "Hg9 mi
4:53 AM79 °FMostly cloudy.5 mph90%29.74 "Hg9 mi
3:53 AM79 °FPassing clouds.9 mph88%29.74 "Hg10 mi
2:53 AM79 °FOvercast.9 mph90%29.74 "Hg10 mi
1:53 AM80 °FOvercast.10 mph85%29.76 "Hg10 mi
1:02 AM80 °FMostly cloudy.12 mph87%29.77 "Hg10 mi
11:53 PM
Sun, Apr 26
80 °FPartly cloudy.10 mph87%29.78 "Hg10 mi
10:53 PM80 °FOvercast.10 mph87%29.79 "Hg10 mi
9:53 PM81 °FPartly cloudy.13 mph82%29.80 "Hg10 mi
8:53 PM80 °FMostly cloudy.10 mph87%29.78 "Hg10 mi
7:53 PM81 °FPartly sunny.9 mph85%29.77 "Hg9 mi
6:53 PM82 °FMostly cloudy.13 mph82%29.77 "Hg9 mi
5:53 PM83 °FMostly cloudy.13 mph77%29.76 "Hg10 mi
4:53 PM83 °FMostly cloudy.13 mph77%29.77 "Hg10 mi
3:53 PM84 °FMore clouds than sun.12 mph77%29.78 "Hg10 mi
2:53 PM85 °FMostly cloudy.14 mph75%29.80 "Hg10 mi
1:53 PM84 °FMostly cloudy.13 mph77%29.81 "Hg10 mi
Weather by CustomWeather, © 2015

See weather overviewHow to use our weather pages